Regional Weather Roundup
Issued by NWS Spokane, WA

Home | Current Version | Previous Version | Text Only | Print | Product List | Glossary On
Versions: 1 2 3 4 5 6 7 8 9 10 11 12 13 14 15 16 17 18 19 20 21 22 23 24 25 26 27 28 29 30 31 32 33 34 35 36 37 38 39 40 41 42 43 44 45 46 47 48 49 50
000
NZUS01 KOTX 291810
RWROTX
EASTERN WASHINGTON/NORTHERN IDAHO ROUNDUP
NATIONAL WEATHER SERVICE, SPOKANE WA
1100 AM PDT FRI AUG 29 2014

Note: "fair" indicated few or no clouds below 12,000 feet with no
significant weather and/or obstructions to visibility.

...NORTHEAST WASHINGTON AND NORTHERN IDAHO PANHANDLE...

CITY           SKY/WX    TMP DP  RH WIND       PRES   REMARKS
SPOKANE INTL   MOSUNNY   74  46  36 S16       29.92F
SPOKANE DOWNTO SUNNY     75  45  34 SW3       29.92F
COEUR D ALENE  SUNNY     73  46  38 SE9       29.93F
DEER PARK      SUNNY     72  45  37 S5        29.93F
SANDPOINT      SUNNY     70  52  52 E5        29.94S

...SOUTHEAST WASHINGTON AND SOUTHERN IDAHO PANHANDLE...

CITY           SKY/WX    TMP DP  RH WIND       PRES   REMARKS
WALLA WALLA    SUNNY     81  44  27 SW13      29.93S
PULLMAN/MOSCOW SUNNY     76  39  26 W7        29.97F
LEWISTON       SUNNY     74  47  38 NW6       29.92F
LOWELL           N/A     71  49  45 N3        29.93F

...COLUMBIA BASIN...

CITY           SKY/WX    TMP DP  RH WIND       PRES   REMARKS
EPHRATA        SUNNY     77  48  35 S7        29.87F
MOSES LAKE     MOSUNNY   76  51  41 SW7       29.89F
TRI CITIES     SUNNY     80  53  39 W9        29.88F
HERMISTON      SUNNY     80  54  40 W14       29.89F
PENDLETON      SUNNY     78  48  34 W13G20    29.93S

...EAST SLOPES CASCADES...

CITY           SKY/WX    TMP DP  RH WIND       PRES   REMARKS
THE DALLES     SUNNY     79  55  43 NW18G28   29.91F
ELLENSBURG     SUNNY     76  50  40 NW18G28   29.91F
WENATCHEE      SUNNY     79  45  29 NW14      29.87F
OMAK           SUNNY     73  50  44 VRB3      29.86F

...SOUTHERN BRITISH COLUMBIA...

CITY           SKY/WX    TMP DP  RH WIND       PRES   REMARKS
PENTICTON      PTSUNNY   70  50  49 NE3       29.85F
CASTLEGAR      PTSUNNY   68  52  56 VRB3      29.88F
CRANBROOK      MOSUNNY   64  52  63 SE3       29.93F

...WESTERN MONTANA...

CITY           SKY/WX    TMP DP  RH WIND       PRES   REMARKS
MISSOULA       SUNNY     72  45  37 CALM      30.00F

...NEIGHBORING CITIES...

CITY           SKY/WX    TMP DP  RH WIND       PRES   REMARKS
SEATTLE        CLOUDY    65  49  56 SW10      30.01R
CALGARY        CLOUDY    55  48  76 S12G17    29.89F



USA.gov is the U.S. government's official web portal to all federal, state and local government web resources and services.